CDT,Max TemperatureF,Mean TemperatureF,Min TemperatureF,Max Dew PointF,MeanDew PointF,Min DewpointF,Max Humidity, Mean Humidity, Min Humidity, Max Sea Level PressureIn, Mean Sea Level PressureIn, Min Sea Level PressureIn, Max VisibilityMiles, Mean VisibilityMiles, Min VisibilityMiles, Max Wind SpeedMPH, Mean Wind SpeedMPH, Max Gust SpeedMPH,PrecipitationIn, CloudCover, Events, WindDirDegrees
2013-3-1,28,24,19,25,18,14,86,72,64,30.28,30.21,30.12,10,10,8,21,13,23,0.00,8,,30
2013-3-2,28,20,12,16,11,5,86,70,47,30.28,30.25,30.20,10,10,10,13,8,17,0.00,1,,341
2013-3-3,30,19,8,14,9,3,92,67,40,30.20,30.14,30.08,10,10,10,10,4,,0.00,0,,151
2013-3-4,32,28,23,21,18,10,80,68,54,30.10,30.01,29.93,10,10,3,28,15,34,0.00,4,,103
2013-3-5,30,27,24,27,24,19,93,85,74,30.16,29.96,29.88,10,3,0,21,11,24,0.22,6,,355
2013-3-6,28,24,19,21,19,14,93,75,69,30.36,30.31,30.16,10,10,10,18,12,,0.00,8,,320
2013-3-7,32,24,17,21,17,12,93,77,60,30.44,30.40,30.36,10,10,8,10,5,,0.00,6,,150
2013-3-8,37,26,15,27,22,12,93,76,64,30.44,30.38,30.24,10,9,5,18,11,21,0.00,0,,118
2013-3-9,37,35,33,34,31,27,93,83,70,30.24,29.99,29.78,10,7,2,21,14,23,0.32,7,,134
2013-3-10,42,38,33,39,35,30,93,90,87,29.78,29.69,29.60,6,1,0,21,9,,1.05,8,,91
2013-3-11,33,30,28,30,28,21,93,83,69,29.88,29.69,29.61,10,5,0,25,9,31,0.04,8,,302
2013-3-12,33,28,24,28,22,16,86,74,64,30.12,29.98,29.88,10,10,3,28,18,34,0.00,5,,282
2013-3-13,33,27,21,19,16,12,80,65,47,30.38,30.30,30.12,10,10,10,21,15,25,0.00,1,,311
2013-3-14,39,30,21,28,23,16,86,75,61,30.37,30.23,30.08,10,10,3,18,7,22,0.00,2,,134
2013-3-15,42,34,26,34,29,23,93,82,61,30.08,29.90,29.75,10,5,1,15,4,,0.00,1,,89
2013-3-16,37,34,30,30,26,21,87,77,60,30.17,29.98,29.76,10,8,2,16,10,20,0.00,8,,8
2013-3-17,33,28,24,25,20,12,80,66,55,30.22,30.12,29.95,10,10,10,18,14,22,0.00,3,,76
2013-3-18,33,26,19,30,22,10,93,78,64,29.94,29.79,29.67,10,7,1,33,15,43,0.08,7,,223
2013-3-19,30,22,14,18,12,5,74,64,54,30.17,30.06,29.89,10,10,10,29,22,37,0.00,1,,284
2013-3-20,24,17,10,14,6,1,74,60,46,30.21,30.15,30.11,10,10,10,30,19,38,0.00,1,,307
2013-3-21,30,19,8,16,8,3,86,63,43,30.12,30.09,30.04,10,10,10,10,7,,0.00,0,,331
2013-3-22,37,26,15,21,15,9,86,63,38,30.09,30.07,30.04,10,10,10,8,3,,0.00,1,,1
2013-3-23,41,31,21,25,19,14,86,60,38,30.14,30.09,30.04,10,10,1,21,6,18,0.00,2,,54
2013-3-24,33,30,28,27,25,25,93,84,70,30.07,29.88,29.77,10,4,1,22,12,25,0.07,3,,25
2013-3-25,35,30,26,25,22,18,86,69,60,30.17,29.99,29.85,10,10,10,22,13,,0.00,7,,345
2013-3-26,37,30,24,27,23,19,80,69,56,30.32,30.25,30.17,10,10,7,14,9,17,0.00,6,,317
2013-3-27,44,36,28,27,23,19,86,63,39,30.38,30.34,30.31,10,10,10,12,5,,0.00,3,,306
2013-3-28,48,36,24,30,25,19,86,63,37,30.39,30.34,30.29,10,10,2,7,3,,0.00,2,,24
2013-3-29,55,42,28,32,28,23,86,62,38,30.34,30.29,30.23,10,10,3,8,5,,0.00,1,,72
2013-3-30,55,44,32,41,34,25,87,69,51,30.24,30.05,29.88,10,9,3,22,9,26,0.00,2,,181
2013-3-31,51,42,33,41,33,21,93,70,44,29.99,29.87,29.83,10,7,0,25,14,33,0.00,4,,297